Temp
7 8 8 8 9 8 8 9 9 10 10 11 11 11 11 12 13 15 16 20 19 19 19 19 19 20 19 18 19 20 16 16 18 21 23 25 25 28 27 29 30 30 29 29 29
7 7 7 8 8 8 8 8 8 9 9 10 10 11 11 11 12 14 19 19 19 19 19 19 19 19 18 19 19 18 17 18 20 22 22 23 24 25 26 27 28 29 29 29 28
6 6 7 7 7 7 8 8 8 8 8 9 9 10 10 9 11 16 16 17 18 19 18 18 19 18 18 19 20 19 19 20 21 22 23 23 24 24 25 25 28 28 28 29 29
7 7 7 7 7 7 7 7 8 8 8 8 8 8 9 8 10 15 16 16 16 17 17 17 17 17 16 17 20 18 21 21 21 22 23 23 24 24 25 25 26 27 28 28 29
6 7 7 7 7 8 8 8 8 8 8 8 8 7 7 6 8 16 16 15 14 15 16 16 16 17 15 17 19 18 19 21 21 22 22 23 23 23 24 25 26 27 28 28 29
7 7 7 7 8 8 8 8 8 8 8 8 7 6 4 3 13 14 14 14 14 14 16 15 16 17 17 16 17 19 19 20 21 22 22 22 23 24 24 25 26 26 27 28 28
7 7 7 7 8 8 9 9 9 9 9 9 8 5 3 6 12 12 13 13 14 13 14 15 16 17 17 16 18 18 17 19 20 21 21 23 22 23 25 25 26 26 27 28 28
7 7 7 7 8 8 9 9 10 10 10 9 8 5 4 12 11 12 12 13 13 13 13 15 15 15 16 17 18 18 17 16 19 20 22 22 21 24 25 26 25 26 27 27 27
7 7 7 7 8 8 9 9 10 10 10 9 8 6 6 11 12 14 13 13 14 14 14 14 15 15 16 15 14 15 16 16 18 21 21 21 21 23 25 25 25 25 26 26 27
7 7 8 8 8 8 8 8 9 9 9 8 7 6 9 12 12 11 13 14 14 15 15 15 15 13 11 12 14 14 16 17 17 20 21 21 21 22 24 24 24 25 25 25 26
7 7 9 9 8 8 8 8 8 9 8 8 8 8 9 11 11 12 12 12 13 13 11 14 11 12 14 14 15 16 16 17 19 20 20 20 20 21 23 23 23 24 24 25 25
7 7 9 9 8 8 8 7 8 8 8 8 9 9 10 10 9 11 11 12 12 11 12 12 11 13 15 15 15 15 14 15 17 18 19 19 20 21 23 23 24 24 24 24 26
7 8 8 8 8 8 8 8 8 8 7 8 10 11 12 11 10 10 11 11 11 11 11 11 13 15 14 14 14 15 14 15 16 18 19 18 18 19 21 22 23 24 25 26 26
7 8 7 8 8 7 7 7 7 7 4 8 11 12 12 12 11 12 12 12 12 11 11 11 13 14 14 14 15 13 16 17 16 16 15 19 17 18 21 21 22 23 24 26 27
8 7 7 7 7 7 7 7 7 7 6 11 11 13 13 12 13 14 13 13 11 12 12 12 12 13 13 14 15 14 17 16 17 16 15 17 15 19 19 20 21 22 24 27 27
8 8 8 7 7 7 7 7 7 4 4 8 11 12 12 12 13 12 13 12 11 12 13 13 14 13 13 15 15 16 15 16 16 14 14 16 15 18 19 20 20 20 24 25 27
9 8 8 7 7 7 7 7 4 3 9 9 10 10 11 11 11 11 11 9 8 8 9 12 12 14 15 13 14 14 13 11 11 12 14 17 16 18 18 20 20 21 22 25 26
9 9 8 8 7 7 7 4 4 6 8 9 8 9 10 10 10 9 10 10 11 9 8 9 9 13 15 13 13 12 11 10 11 11 14 17 15 17 20 22 24 24 24 25 25
9 9 9 8 8 7 7 3 2 8 7 8 6 9 9 10 9 8 9 8 11 7 7 10 11 13 14 14 14 12 12 13 12 14 13 15 18 20 22 22 22 22 23 23 24
9 9 9 9 8 8 3 5 7 9 10 9 5 8 7 8 8 8 8 10 8 9 8 10 8 12 13 14 14 13 13 12 10 12 13 14 15 17 19 21 20 19 18 20 18
8 8 9 8 8 7 1 4 8 9 9 8 7 8 8 8 8 8 9 9 8 8 8 8 8 9 11 12 12 11 11 12 11 12 14 13 15 17 20 19 20 20 18 18 17
7 4 9 8 6 3 2 7 9 9 9 8 8 8 7 7 7 7 7 7 8 7 7 8 6 6 9 11 13 12 11 11 10 12 12 15 16 20 18 21 21 19 18 18 19
5 6 9 8 5 1 4 7 7 7 8 8 8 8 7 7 6 7 6 8 8 7 7 7 5 5 6 9 11 11 11 11 10 11 13 13 16 20 19 20 21 18 18 17 17
5 2 7 7 5 4 3 5 6 7 8 8 7 8 6 6 7 6 7 8 8 8 9 7 5 6 5 9 9 8 10 10 10 8 13 15 16 18 20 20 20 19 18 17 17
5 3 5 1 3 3 4 5 5 5 6 7 7 7 6 5 5 5 7 7 8 8 8 5 5 6 6 7 8 9 10 10 10 10 9 13 12 15 16 20 20 20 18 18 17
4 3 3 3 4 3 4 5 5 5 5 6 5 6 6 5 5 4 5 6 5 7 5 4 5 7 7 8 8 9 11 11 11 12 11 11 12 16 17 19 19 19 19 18 17
2 2 2 4 3 3 3 4 4 6 6 7 6 5 5 6 7 6 6 7 6 6 5 5 5 6 7 8 8 8 10 11 12 13 12 11 14 15 16 17 14 17 19 19 18
Height
1530 1527 1524 1522 1519 1517 1514 1512 1510 1507 1504 1503 1503 1500 1498 1493 1491 1491 1488 1492 1494 1496 1500 1501 1501 1500 1504 1504 1505 1505 1516 1518 1509 1503 1491 1490 1493 1478 1488 1483 1480 1480 1482 1483 1485
1529 1526 1523 1520 1518 1515 1512 1510 1507 1504 1501 1500 1498 1495 1492 1489 1486 1481 1486 1486 1487 1492 1493 1496 1497 1498 1500 1498 1500 1498 1505 1503 1490 1491 1487 1482 1490 1484 1487 1481 1479 1477 1481 1481 1481
1528 1525 1522 1519 1516 1513 1510 1508 1505 1503 1501 1498 1495 1494 1492 1489 1485 1475 1476 1478 1480 1485 1487 1491 1495 1496 1493 1494 1492 1488 1488 1488 1484 1487 1488 1482 1482 1483 1482 1480 1479 1478 1477 1478 1477
1528 1525 1522 1518 1515 1512 1509 1505 1502 1499 1497 1495 1493 1490 1488 1490 1489 1472 1473 1473 1473 1475 1478 1482 1488 1490 1489 1486 1486 1490 1479 1481 1483 1482 1483 1480 1477 1475 1480 1477 1478 1476 1475 1474 1472
1527 1524 1521 1517 1514 1511 1507 1504 1501 1498 1495 1492 1489 1487 1485 1483 1472 1473 1469 1468 1467 1471 1470 1476 1480 1483 1482 1481 1483 1479 1477 1478 1480 1479 1477 1478 1474 1471 1469 1470 1469 1470 1469 1468 1467
1526 1522 1518 1515 1511 1508 1504 1501 1498 1496 1493 1491 1489 1487 1485 1481 1468 1467 1464 1465 1467 1469 1470 1473 1475 1477 1479 1478 1480 1473 1477 1474 1475 1473 1473 1474 1467 1466 1461 1461 1462 1463 1461 1460 1461
1525 1521 1517 1512 1509 1505 1500 1497 1494 1491 1488 1486 1485 1482 1480 1471 1464 1462 1461 1461 1464 1466 1468 1470 1474 1474 1474 1476 1474 1472 1476 1470 1464 1467 1468 1472 1459 1453 1457 1459 1458 1458 1455 1455 1454
1523 1519 1515 1511 1506 1501 1497 1493 1490 1487 1484 1482 1481 1480 1471 1462 1460 1455 1456 1455 1459 1462 1464 1465 1470 1472 1473 1471 1469 1470 1471 1473 1453 1463 1465 1473 1439 1445 1453 1454 1452 1450 1449 1448 1447
1520 1517 1513 1508 1503 1499 1496 1492 1487 1484 1482 1481 1479 1478 1465 1458 1455 1454 1454 1451 1455 1457 1461 1464 1468 1467 1469 1472 1478 1471 1468 1461 1454 1458 1462 1465 1421 1447 1449 1449 1446 1445 1443 1441 1438
1519 1515 1509 1504 1501 1497 1495 1491 1485 1483 1482 1481 1479 1481 1463 1457 1454 1453 1453 1452 1451 1455 1457 1460 1461 1463 1465 1470 1464 1465 1459 1450 1457 1455 1457 1458 1431 1441 1443 1443 1441 1438 1435 1433 1431
1516 1511 1507 1504 1501 1497 1494 1489 1488 1486 1480 1484 1479 1475 1460 1451 1451 1447 1453 1454 1453 1454 1456 1456 1463 1451 1448 1455 1457 1454 1456 1452 1448 1448 1451 1447 1438 1434 1433 1432 1432 1427 1425 1422 1421
1515 1510 1505 1503 1500 1497 1494 1490 1491 1492 1480 1473 1468 1462 1453 1450 1451 1442 1450 1455 1452 1454 1451 1456 1448 1447 1451 1453 1456 1457 1459 1453 1453 1448 1447 1447 1438 1426 1425 1422 1425 1419 1418 1415 1414
1513 1508 1503 1501 1499 1496 1492 1491 1489 1487 1484 1471 1464 1456 1449 1445 1444 1440 1446 1447 1448 1450 1450 1451 1444 1446 1450 1452 1452 1449 1455 1456 1458 1451 1440 1447 1437 1430 1416 1414 1413 1413 1410 1409 1406
1512 1508 1503 1499 1498 1495 1491 1487 1484 1484 1491 1476 1462 1455 1450 1446 1442 1437 1439 1445 1445 1446 1447 1445 1441 1444 1445 1448 1448 1450 1448 1448 1453 1457 1457 1443 1445 1430 1409 1403 1405 1405 1403 1402 1399
1511 1507 1503 1498 1497 1493 1490 1485 1483 1483 1484 1469 1462 1456 1452 1451 1443 1436 1440 1435 1435 1439 1443 1439 1438 1442 1443 1442 1441 1442 1443 1443 1445 1447 1453 1446 1462 1385 1407 1401 1399 1394 1395 1390 1390
1508 1506 1502 1499 1496 1491 1486 1484 1482 1491 1494 1474 1463 1455 1451 1446 1441 1439 1434 1434 1435 1434 1431 1433 1435 1437 1437 1436 1436 1437 1438 1440 1441 1449 1458 1438 1449 1377 1399 1393 1391 1387 1384 1383 1383
1506 1503 1499 1498 1495 1490 1486 1483 1493 1501 1479 1473 1467 1459 1452 1448 1443 1440 1436 1437 1443 1445 1440 1429 1431 1429 1431 1436 1433 1437 1446 1461 1463 1459 1438 1425 1435 1387 1381 1376 1381 1380 1379 1377 1378
1503 1500 1498 1496 1494 1490 1486 1486 1498 1488 1482 1477 1472 1460 1455 1450 1447 1443 1437 1438 1434 1442 1444 1439 1440 1425 1424 1429 1432 1435 1441 1453 1456 1454 1436 1422 1417 1393 1374 1373 1373 1375 1371 1372 1371
1499 1497 1496 1495 1493 1491 1489 1500 1504 1484 1483 1475 1475 1460 1456 1452 1450 1448 1443 1441 1435 1444 1449 1438 1432 1422 1422 1424 1427 1429 1434 1430 1442 1426 1440 1417 1393 1378 1369 1363 1366 1366 1365 1366 1366
1496 1494 1493 1493 1493 1492 1493 1495 1487 1483 1476 1474 1481 1464 1462 1457 1454 1449 1445 1441 1443 1442 1441 1435 1439 1423 1421 1420 1420 1425 1425 1436 1441 1445 1440 1415 1402 1388 1369 1361 1362 1361 1359 1362 1365
1496 1495 1494 1494 1493 1492 1503 1494 1483 1479 1475 1472 1468 1463 1460 1458 1454 1451 1446 1445 1446 1443 1439 1438 1439 1432 1424 1422 1422 1426 1426 1426 1429 1429 1424 1425 1393 1370 1359 1361 1359 1356 1351 1354 1359
1497 1497 1495 1495 1495 1493 1496 1487 1481 1475 1472 1469 1465 1460 1461 1457 1455 1452 1451 1449 1444 1444 1439 1436 1442 1443 1430 1420 1418 1418 1423 1427 1434 1426 1417 1406 1373 1358 1353 1352 1352 1344 1344 1351 1355
1501 1497 1495 1495 1498 1500 1491 1485 1481 1479 1470 1466 1464 1461 1459 1457 1458 1450 1449 1441 1440 1441 1437 1437 1444 1445 1434 1418 1414 1419 1416 1420 1421 1416 1406 1415 1372 1355 1357 1352 1350 1346 1344 1351 1356
1506 1504 1497 1494 1498 1497 1494 1487 1482 1476 1470 1465 1462 1458 1459 1456 1452 1450 1444 1440 1438 1439 1438 1440 1440 1439 1441 1423 1420 1425 1415 1419 1422 1426 1400 1389 1388 1354 1355 1351 1349 1350 1342 1349 1356
1509 1507 1505 1503 1496 1495 1493 1489 1482 1477 1473 1466 1460 1460 1458 1455 1450 1445 1441 1438 1434 1431 1432 1436 1438 1431 1426 1423 1422 1416 1414 1412 1416 1411 1415 1395 1394 1371 1365 1354 1349 1349 1349 1354 1359
1512 1512 1507 1502 1496 1493 1489 1486 1483 1478 1475 1467 1465 1457 1454 1453 1449 1445 1441 1438 1436 1430 1431 1433 1432 1424 1419 1414 1411 1409 1402 1402 1405 1401 1402 1398 1384 1370 1364 1352 1339 1347 1348 1352 1356
1513 1512 1509 1501 1496 1494 1490 1487 1482 1476 1469 1465 1461 1455 1450 1443 1438 1433 1429 1424 1427 1428 1429 1428 1427 1423 1412 1406 1401 1405 1395 1395 1392 1387 1387 1394 1376 1364 1361 1355 1353 1352 1354 1347 1355
Wind_Speed
15 16 17 17 18 18 17 18 18 18 16 16 15 16 19 23 25 25 32 29 24 21 21 11 13 13 18 15 19 14 2 5 6 7 9 6 4 31 20 12 1 8 9 8 15
16 17 17 18 18 18 18 18 18 18 18 17 17 17 20 23 28 33 29 26 25 23 21 28 20 12 12 14 9 8 8 9 9 11 6 20 12 30 19 22 16 3 14 6 6
17 17 18 18 19 19 19 19 18 18 18 18 18 17 18 21 26 13 9 5 8 23 30 24 26 18 15 22 11 9 14 14 19 20 19 18 18 30 21 12 14 16 21 22 16
17 18 18 19 19 19 20 21 20 20 20 19 20 21 20 16 7 13 4 7 6 12 33 33 22 15 6 12 22 11 17 20 24 26 23 18 30 17 25 27 29 29 29 27 22
19 19 19 19 19 19 20 21 21 21 21 21 22 23 23 11 26 11 16 8 2 11 29 30 26 15 7 6 14 22 12 19 25 32 32 29 27 27 32 36 36 36 35 31 30
19 20 21 21 21 21 21 22 22 23 23 22 20 21 13 12 17 13 20 24 12 9 15 27 12 19 7 6 9 6 10 20 24 29 29 20 25 31 37 41 35 34 36 34 32
19 21 22 21 20 19 20 21 21 20 21 22 19 14 14 28 20 18 20 20 17 14 15 23 25 12 10 4 24 23 10 16 22 16 13 22 24 27 34 34 34 37 39 36 36
24 25 26 25 22 21 21 20 11 13 16 17 16 11 13 26 12 15 10 24 25 18 13 14 14 14 26 13 10 2 6 18 20 18 14 11 33 20 26 26 28 29 38 42 48
28 28 28 27 25 21 18 19 16 16 14 14 15 9 15 8 10 7 8 12 23 19 13 12 10 10 6 3 1 6 16 19 21 8 5 13 42 13 27 30 26 28 35 40 44
27 27 30 28 26 21 19 22 18 9 17 14 7 9 10 9 5 20 17 6 5 15 16 10 6 5 4 6 19 11 22 16 14 6 17 21 33 19 33 35 34 39 44 43 43
27 28 28 24 20 14 20 29 29 7 31 15 27 27 41 44 46 34 12 15 13 8 6 5 4 19 20 16 9 8 11 14 2 11 16 20 21 19 20 21 19 29 33 38 44
25 25 24 18 12 12 16 24 22 18 17 33 21 30 32 34 33 39 22 9 3 5 4 4 19 9 9 6 11 13 14 19 6 9 10 12 23 25 23 23 29 36 36 36 38
23 23 20 15 10 12 13 18 16 21 6 16 28 19 26 9 23 34 21 14 6 8 7 10 6 9 15 10 16 15 18 16 11 12 22 9 17 13 17 16 24 26 33 35 32
22 19 15 14 6 18 17 22 13 18 4 7 11 8 14 7 4 12 19 21 5 10 9 10 11 14 11 18 16 19 11 12 17 12 14 7 19 17 19 23 16 22 31 29 37
20 15 9 10 11 17 22 17 14 5 3 9 11 11 19 16 21 4 9 11 19 19 7 13 8 1 11 17 13 19 13 11 16 9 9 16 4 33 11 19 18 14 25 39 42
20 14 8 8 12 17 21 19 5 4 3 7 7 13 11 18 20 14 8 7 9 5 16 18 15 12 12 13 9 7 8 13 16 3 10 15 9 29 17 21 11 8 25 29 34
21 14 9 10 13 16 21 8 4 5 4 8 22 18 8 11 12 11 5 2 4 7 5 7 13 14 16 12 11 5 1 2 3 5 16 14 11 23 6 6 11 16 24 38 38
21 12 7 9 11 17 17 5 6 3 6 15 17 19 4 8 6 10 11 5 10 2 5 2 4 7 8 9 8 6 9 5 9 4 5 9 10 9 16 26 38 34 34 33 32
24 8 8 8 9 10 8 5 5 8 6 12 14 10 5 6 6 5 5 3 4 3 5 3 5 2 8 4 2 5 8 7 5 15 2 6 15 17 21 26 22 19 23 15 19
22 10 5 5 6 8 5 2 4 13 16 13 1 9 9 6 5 7 3 4 7 8 3 3 4 6 5 3 3 6 3 1 2 6 10 6 7 8 9 16 7 10 10 18 23
10 6 5 4 6 2 2 5 10 18 15 7 5 5 11 7 2 3 4 4 4 6 6 2 1 3 4 4 4 2 3 3 4 3 7 4 9 7 19 11 14 12 19 32 33
10 2 7 5 3 2 1 5 19 16 20 4 4 5 7 7 3 4 4 4 4 3 5 1 1 4 8 14 16 10 6 5 3 8 5 9 20 14 14 16 12 11 26 31 39
17 6 6 10 3 4 7 11 13 13 11 3 4 5 5 4 5 5 2 7 11 3 3 4 1 3 10 6 2 5 5 2 4 7 19 7 10 7 9 12 6 11 25 29 37
8 4 6 8 14 3 7 6 9 15 15 11 10 4 6 7 3 6 9 5 6 7 6 4 4 6 7 5 3 5 8 8 5 3 10 19 14 28 19 19 7 14 29 33 37
6 3 4 4 6 8 8 7 16 8 5 11 4 10 13 5 6 4 5 8 9 15 4 7 5 8 14 16 16 16 16 13 12 9 4 7 12 16 18 16 12 24 26 30 31
8 6 9 14 13 5 5 3 14 12 7 7 9 18 12 8 9 11 11 6 8 5 6 4 4 5 13 16 17 20 19 13 16 13 9 15 24 10 14 20 11 25 30 31 33
12 4 8 7 6 5 2 12 13 16 10 13 14 14 13 13 18 27 27 29 15 7 6 6 4 2 7 12 14 8 15 17 14 8 4 5 7 16 15 2 6 8 20 35 35
Wind_Direction
342 338 338 336 335 338 334 327 321 316 311 308 302 299 298 298 284 275 264 262 261 251 237 223 232 230 215 223 211 192 108 228 228 232 248 43 25 275 321 325 230 127 153 191 200
353 350 349 347 345 343 339 335 330 324 319 310 303 299 298 297 292 280 275 267 255 246 241 229 224 207 206 231 220 183 199 227 218 230 281 310 302 292 310 320 306 301 333 251 275
355 353 352 350 346 342 339 335 331 328 323 319 313 303 296 301 305 283 145 173 250 231 230 232 227 224 222 234 210 207 218 214 251 253 271 284 286 274 299 299 281 309 315 304 312
360 356 352 348 343 340 336 332 329 326 322 319 316 312 304 300 263 168 157 110 34 240 214 222 223 217 214 216 235 263 237 225 245 259 262 256 270 273 269 267 279 286 291 292 295
1 356 352 347 342 337 331 326 322 318 314 312 312 311 307 278 254 243 258 301 342 325 214 212 211 209 197 216 237 250 255 240 242 251 253 260 263 264 272 279 282 284 286 291 282
357 352 349 344 336 333 327 322 319 314 310 303 304 304 291 277 300 303 269 250 241 255 232 207 217 224 268 228 225 265 260 259 253 250 256 256 263 268 271 277 283 283 285 288 287
357 354 350 341 335 329 323 321 319 318 309 300 301 296 267 265 302 288 263 251 224 231 231 223 215 208 235 289 255 263 280 280 259 253 262 259 263 253 258 271 276 277 278 283 287
356 356 352 347 341 334 335 340 346 334 302 301 297 286 262 308 297 279 261 241 228 238 237 219 219 246 239 268 293 258 234 247 250 244 251 252 262 254 261 265 260 272 282 283 282
354 352 350 349 347 340 354 352 344 316 308 302 297 302 270 298 296 338 298 262 226 230 235 242 239 234 214 175 312 211 242 238 250 223 218 208 261 253 258 259 267 271 274 274 278
349 348 353 359 356 352 6 9 13 68 13 345 330 318 285 309 299 320 301 293 202 233 247 249 239 208 181 173 215 215 222 237 254 213 225 239 260 261 265 266 269 272 270 269 269
347 352 353 352 354 1 8 15 14 345 323 305 284 264 273 284 282 286 289 337 282 263 190 208 195 223 219 228 272 289 269 255 230 202 223 239 262 257 248 252 257 261 264 261 264
345 348 348 348 358 358 11 15 1 337 314 314 308 290 286 279 272 279 276 294 295 236 186 206 231 243 259 259 226 243 266 267 290 286 245 244 252 263 262 263 256 259 264 257 266
344 349 349 358 16 0 353 348 344 339 302 324 326 319 322 298 242 259 266 279 250 261 248 220 220 218 242 247 249 244 234 259 264 303 289 300 278 275 272 261 261 267 270 270 273
342 349 354 11 9 353 343 347 342 334 49 290 309 300 327 295 245 261 259 248 229 222 246 256 236 248 259 226 236 248 250 256 246 257 261 205 280 266 267 267 264 249 255 265 275
340 341 7 1 351 345 343 346 330 313 84 304 295 343 3 10 353 338 302 275 214 234 194 237 288 226 230 241 227 250 251 241 235 239 244 244 278 266 230 254 252 258 260 268 268
339 330 333 331 335 345 343 334 12 50 319 310 300 346 12 353 346 8 348 346 342 256 234 235 218 247 255 268 260 285 253 235 256 212 252 228 203 272 242 247 251 232 248 261 274
340 326 296 313 333 348 341 341 42 88 286 326 331 339 9 347 352 346 311 62 64 335 356 244 229 234 244 254 264 223 34 250 251 199 234 176 212 238 261 239 241 249 249 254 261
344 322 299 311 341 355 340 44 58 291 325 322 339 319 336 7 337 331 355 358 159 131 339 21 320 202 214 208 230 184 171 197 209 207 234 260 236 240 228 252 260 255 259 264 267
345 321 313 316 339 359 352 41 202 329 265 336 330 291 332 20 336 330 344 288 146 123 173 251 233 337 313 287 144 320 217 200 300 281 244 238 265 280 280 279 267 257 260 249 249
343 347 340 320 319 334 62 266 274 316 323 356 193 294 355 338 346 338 340 348 359 31 3 282 280 247 288 0 234 181 247 165 215 199 239 257 259 236 225 249 264 253 215 198 177
7 356 8 301 300 334 131 235 294 320 353 313 310 331 342 317 255 295 328 360 17 336 325 307 194 306 347 216 218 335 249 206 176 198 235 272 253 205 255 260 275 273 193 172 167
359 20 360 321 317 14 272 280 321 319 334 311 270 333 343 315 305 320 329 273 334 291 301 75 213 267 254 265 264 252 264 165 211 243 250 244 255 272 289 296 302 261 165 164 166
342 312 37 336 30 319 309 317 304 314 318 292 300 314 346 331 326 270 239 287 295 293 301 354 340 332 322 298 315 237 164 29 289 229 241 250 265 231 267 289 294 173 152 154 155
343 347 340 1 355 22 327 314 322 314 301 338 299 328 348 319 286 273 288 273 281 229 262 254 227 205 230 240 21 279 301 305 280 278 248 241 287 276 274 283 283 190 155 155 157
6 320 15 306 324 315 303 285 319 328 301 314 313 331 324 301 299 244 299 296 294 287 205 172 237 225 250 262 269 267 256 254 249 248 242 307 281 290 300 288 239 184 156 151 151
1 351 325 293 282 308 327 323 319 321 312 303 317 316 321 298 281 294 277 272 249 283 178 191 248 252 283 271 256 250 247 244 244 247 245 250 270 285 302 310 179 175 161 156 158
349 329 309 292 297 326 274 321 309 327 307 283 305 310 308 289 292 281 265 264 245 219 203 187 218 252 260 290 246 227 235 241 234 187 191 255 274 293 303 349 1 80 185 162 162